Wray Municipal Airport, CO

3:30 AM MDT on September 24, 2017 (GMT -0600)
Wray Municipal Airport

Weather History for K2V5 - January, 2014

Change the Weather History Date:

Thursday, January 30, 2014

  Actual Average (KSYF) Record (KSYF)
Temperature  
Mean Temperature 37 °F -  
Max Temperature 52 °F 41 °F 63 °F (2017)
Min Temperature 22 °F 17 °F 12 °F (2013)
Degree Days  
Heating Degree Days 28    
Moisture  
Dew Point 26 °F    
Average Humidity 64    
Maximum Humidity 96    
Minimum Humidity 39    
Precipitation  
Precipitation 0.00 in - - ()
Sea Level Pressure  
Sea Level Pressure 29.68 in    
Wind  
Wind Speed 13 mph (NE)    
Max Wind Speed 32 mph    
Max Gust Speed 44 mph    
Visibility 8 miles    
Events Snow    
Averages and records for this station are not official NWS values.
T = Trace of Precipitation, MM = Missing Value Source: NWS Daily Summary

Daily Weather History Graph

Daily Weather History Graph

Search for Another Location

Airport or City:

Trip Planner

Search our weather history database for the weather conditions in past years. The results will help you decide how hot, cold, wet, or windy it might be!

Date:

Astronomy

Jan. 30, 2014 Rise Set
Actual Time 6:59 AM MST 5:05 PM MST
Civil Twilight 6:30 AM MST 5:34 PM MST
Nautical Twilight 5:58 AM MST 6:06 PM MST
Astronomical Twilight 5:26 AM MST 6:38 PM MST
Moon 6:26 AM MST (1/30) 5:19 PM MST (1/30)
Length of Visible Light 11h 03m
Length of Day
10h 06m
Waning Crescent, 0% of the Moon is Illuminated
Jan 30
Waning Crescent
Jan 30
New
Feb 6
First Quarter
Feb 14
Full
Feb 22
Last Quarter

Hourly Weather History & Observations

Time (MST) Temp. Windchill Dew Point Humidity Pressure Visibility Wind Dir Wind Speed Gust Speed Precip Events Conditions
12:15 AM 41.0 °F 36.4 °F 21.7 °F 46% 29.39 in 10.0 mi WSW 6.9 mph - N/A   Overcast
12:35 AM 41.2 °F 36.0 °F 22.3 °F 47% 29.40 in 10.0 mi WSW 8.1 mph - N/A   Overcast
12:55 AM 41.9 °F 36.3 °F 23.0 °F 47% 29.41 in 10.0 mi WSW 9.2 mph - N/A   Overcast
1:15 AM 42.3 °F 38.6 °F 23.7 °F 48% 29.42 in 10.0 mi WSW 5.8 mph - N/A   Overcast
1:35 AM 42.3 °F 39.4 °F 24.4 °F 49% 29.43 in 10.0 mi West 4.6 mph - N/A   Overcast
1:55 AM 45.5 °F 39.9 °F 26.4 °F 47% 29.45 in 10.0 mi West 11.5 mph - N/A   Overcast
2:15 AM 50.9 °F - 27.5 °F 40% 29.45 in 10.0 mi WNW 16.1 mph 20.7 mph N/A   Overcast
2:35 AM 52.0 °F - 28.0 °F 40% 29.45 in 10.0 mi WNW 15.0 mph 21.9 mph N/A   Mostly Cloudy
2:55 AM 52.5 °F - 28.4 °F 39% 29.47 in 10.0 mi WNW 17.3 mph 27.6 mph N/A   Mostly Cloudy
3:15 AM 51.8 °F - 30.4 °F 44% 29.48 in 10.0 mi NW 31.1 mph 40.3 mph N/A   Clear
3:35 AM 45.9 °F 36.1 °F 32.9 °F 61% 29.51 in 10.0 mi NNW 32.2 mph 43.7 mph N/A   Scattered Clouds
3:55 AM 43.5 °F 34.3 °F 31.1 °F 62% 29.54 in 10.0 mi NNW 24.2 mph 32.2 mph N/A   Scattered Clouds
4:15 AM 42.1 °F 33.3 °F 31.3 °F 66% 29.56 in 10.0 mi NNW 19.6 mph 29.9 mph N/A   Clear
4:35 AM 41.4 °F 31.9 °F 31.5 °F 68% 29.56 in 10.0 mi NW 21.9 mph 28.8 mph N/A   Clear
4:55 AM 40.3 °F 30.4 °F 31.8 °F 72% 29.57 in 10.0 mi NW 21.9 mph 27.6 mph N/A   Clear
5:15 AM 40.1 °F 30.5 °F 31.6 °F 72% 29.58 in 10.0 mi NW 20.7 mph 27.6 mph N/A   Clear
5:35 AM 39.2 °F 29.6 °F 31.1 °F 73% 29.59 in 10.0 mi NW 19.6 mph 24.2 mph N/A   Clear
5:55 AM 39.2 °F 29.8 °F 30.9 °F 72% 29.60 in 10.0 mi NW 18.4 mph 25.3 mph N/A   Clear
6:15 AM 38.8 °F 30.4 °F 30.9 °F 73% 29.60 in 10.0 mi NW 15.0 mph 25.3 mph N/A   Scattered Clouds
6:35 AM 38.3 °F 29.3 °F 30.2 °F 73% 29.61 in 10.0 mi NW 16.1 mph 20.7 mph N/A   Scattered Clouds
6:55 AM 38.3 °F 30.5 °F 29.7 °F 71% 29.62 in 10.0 mi NW 12.7 mph 19.6 mph N/A   Scattered Clouds
7:15 AM 37.9 °F 29.2 °F 29.3 °F 71% 29.63 in 10.0 mi NW 15.0 mph 19.6 mph N/A   Mostly Cloudy
7:35 AM 38.3 °F 29.7 °F 29.7 °F 71% 29.63 in 10.0 mi NNW 15.0 mph 21.9 mph N/A   Mostly Cloudy
7:55 AM 39.4 °F 30.7 °F 29.8 °F 69% 29.65 in 10.0 mi NNW 16.1 mph 24.2 mph N/A   Mostly Cloudy
8:15 AM 41.0 °F 32.2 °F 29.8 °F 64% 29.65 in 10.0 mi NNW 18.4 mph 25.3 mph N/A   Mostly Cloudy
8:35 AM 41.2 °F 33.4 °F 29.8 °F 64% 29.66 in 10.0 mi NNW 15.0 mph 23.0 mph N/A   Clear
8:55 AM 42.8 °F 35.1 °F 30.6 °F 62% 29.68 in 10.0 mi NNW 16.1 mph 20.7 mph N/A   Clear
9:15 AM 44.1 °F 35.9 °F 30.0 °F 58% 29.68 in 10.0 mi NNW 19.6 mph 23.0 mph N/A   Clear
9:35 AM 44.8 °F 37.7 °F 29.8 °F 56% 29.68 in 10.0 mi North 16.1 mph 24.2 mph N/A   Clear
9:55 AM 46.0 °F 39.6 °F 29.8 °F 53% 29.68 in 10.0 mi North 15.0 mph 21.9 mph N/A   Clear
10:15 AM 45.9 °F 39.1 °F 29.5 °F 53% 29.70 in 10.0 mi North 16.1 mph 20.7 mph N/A   Clear
10:35 AM 45.5 °F 39.6 °F 29.3 °F 53% 29.71 in 10.0 mi North 12.7 mph - N/A   Clear
10:55 AM 48.2 °F - 30.4 °F 50% 29.71 in 10.0 mi North 13.8 mph 18.4 mph N/A   Clear
11:15 AM 45.7 °F 40.2 °F 31.3 °F 57% 29.72 in 10.0 mi NNE 11.5 mph - N/A   Clear
11:35 AM 45.7 °F 39.8 °F 31.3 °F 57% 29.72 in 10.0 mi ENE 12.7 mph 17.3 mph N/A   Clear
11:55 AM 46.4 °F 41.5 °F 30.9 °F 55% 29.72 in 10.0 mi East 10.4 mph - N/A   Clear
12:15 PM 46.0 °F 40.2 °F 30.0 °F 54% 29.72 in 10.0 mi ENE 12.7 mph 17.3 mph N/A   Scattered Clouds
12:35 PM 45.0 °F 40.1 °F 28.8 °F 53% 29.72 in 10.0 mi NE 9.2 mph - N/A   Scattered Clouds
12:55 PM 45.5 °F 39.6 °F 28.2 °F 51% 29.70 in 10.0 mi NE 12.7 mph 18.4 mph N/A   Mostly Cloudy
1:15 PM 43.7 °F 37.3 °F 27.1 °F 52% 29.72 in 10.0 mi ENE 12.7 mph 17.3 mph N/A   Scattered Clouds
1:35 PM 44.4 °F 38.2 °F 26.6 °F 50% 29.71 in 10.0 mi East 12.7 mph 17.3 mph N/A   Mostly Cloudy
1:55 PM 43.3 °F 36.8 °F 25.9 °F 50% 29.71 in 10.0 mi East 12.7 mph 18.4 mph N/A   Scattered Clouds
2:15 PM 42.3 °F 36.3 °F 24.8 °F 50% 29.72 in 10.0 mi East 10.4 mph - N/A   Scattered Clouds
2:35 PM 41.9 °F 35.4 °F 23.7 °F 49% 29.72 in 10.0 mi East 11.5 mph - N/A   Scattered Clouds
2:55 PM 41.7 °F 34.1 °F 22.6 °F 47% 29.73 in 10.0 mi East 15.0 mph - N/A   Scattered Clouds
3:15 PM 41.0 °F 33.1 °F 22.6 °F 48% 29.75 in 10.0 mi East 15.0 mph - N/A   Mostly Cloudy
3:35 PM 39.7 °F 32.7 °F 22.3 °F 50% 29.76 in 10.0 mi East 11.5 mph 17.3 mph N/A   Overcast
3:55 PM 39.2 °F 31.2 °F 22.1 °F 50% 29.77 in 10.0 mi East 13.8 mph - N/A   Overcast
4:15 PM 38.3 °F 30.5 °F 22.1 °F 52% 29.77 in 10.0 mi ESE 12.7 mph - N/A   Mostly Cloudy
4:35 PM 37.8 °F 30.2 °F 22.1 °F 53% 29.77 in 10.0 mi ESE 11.5 mph 17.3 mph N/A   Overcast
4:55 PM 36.7 °F 28.9 °F 21.9 °F 55% 29.78 in 10.0 mi ESE 11.5 mph - N/A   Overcast
5:15 PM 36.0 °F 29.0 °F 21.6 °F 56% 29.79 in 10.0 mi East 9.2 mph - N/A   Overcast
5:35 PM 33.6 °F 24.6 °F 19.6 °F 56% 29.80 in 10.0 mi East 12.7 mph - N/A   Overcast
5:55 PM 32.7 °F 23.4 °F 19.4 °F 58% 29.81 in 10.0 mi East 12.7 mph - N/A   Overcast
6:15 PM 32.0 °F 22.5 °F 19.4 °F 60% 29.82 in 10.0 mi East 12.7 mph 18.4 mph N/A   Overcast
6:35 PM 31.5 °F 22.3 °F 20.3 °F 63% 29.82 in 10.0 mi East 11.5 mph 17.3 mph N/A   Overcast
6:55 PM 30.0 °F 19.1 °F 22.8 °F 75% 29.83 in 7.0 mi East 15.0 mph 19.6 mph N/A Snow Light Snow
7:15 PM 28.6 °F 18.2 °F 24.6 °F 85% 29.84 in 4.0 mi East 12.7 mph - N/A Snow Light Snow
7:35 PM 27.7 °F 17.6 °F 25.7 °F 92% 29.83 in 1.5 mi East 11.5 mph - N/A Snow Light Snow
7:55 PM 26.6 °F 17.5 °F 25.2 °F 94% 29.83 in 1.0 mi ENE 9.2 mph - N/A Snow Light Snow
8:15 PM 26.4 °F 17.3 °F 25.3 °F 96% 29.83 in 1.2 mi East 9.2 mph - N/A Snow Snow
8:35 PM 26.2 °F 15.8 °F 25.3 °F 96% 29.83 in 1.5 mi East 11.5 mph - N/A Snow Light Snow
8:55 PM 25.7 °F 15.1 °F 24.8 °F 96% 29.83 in 2.0 mi East 11.5 mph - N/A Snow Light Snow
9:15 PM 24.8 °F 13.4 °F 23.4 °F 94% 29.83 in 2.0 mi East 12.7 mph 18.4 mph N/A Snow Light Snow
9:35 PM 24.6 °F 13.2 °F 23.2 °F 94% 29.83 in 2.5 mi East 12.7 mph - N/A Snow Light Snow
9:55 PM 24.3 °F 13.3 °F 22.8 °F 94% 29.83 in 2.0 mi ENE 11.5 mph - N/A Snow Light Snow
10:15 PM 23.7 °F 12.6 °F 22.1 °F 94% 29.83 in 1.5 mi East 11.5 mph - N/A Snow Light Snow
10:35 PM 23.5 °F 12.4 °F 22.1 °F 94% 29.83 in 1.0 mi ENE 11.5 mph - N/A Snow Snow
10:55 PM 23.0 °F 11.1 °F 21.7 °F 95% 29.83 in 1.2 mi ENE 12.7 mph 17.3 mph N/A Snow Light Snow
11:15 PM 23.0 °F 13.9 °F 21.9 °F 96% 29.82 in 1.5 mi ENE 8.1 mph - N/A Snow Light Snow
11:35 PM 22.8 °F 10.9 °F 21.4 °F 94% 29.82 in 1.0 mi East 12.7 mph - N/A Snow Snow
11:55 PM 22.5 °F 11.7 °F 21.2 °F 95% 29.83 in 0.8 mi East 10.4 mph - N/A Snow Snow